Estación Meteorológica Peña el Pijo (Robertgarden) [ 07/23/19 00:17:00 CEST ]

Fecha Hora Presion(HPa) Temp (°C) Humedad % Rocio (°C) Viento ( m/s) Direccion Lluvia 1Hora(mm) Lluvia 24H(mm) LLuvia Total(mm)
2019-Jul-09 01:09:11 1008.200 - - - - NNW     342.62
2019-Jul-09 02:09:30 1007.700 - - - - NNW     342.62
2019-Jul-09 03:10:56 1007.800 - - - - NNW     342.62
2019-Jul-09 04:09:26 1007.700 - - - - NNW     342.62
2019-Jul-09 05:09:35 1007.800 - - - - NNW     342.62
2019-Jul-09 06:09:08 1007.700 - - - - NNW     342.62
2019-Jul-09 07:09:09 1008.200 - - - - NNW     342.62
2019-Jul-09 08:09:27 1008.300 - - - - NNW     342.62
2019-Jul-09 09:08:50 1008.500 - - - - NNW     342.62
2019-Jul-09 10:09:07 1008.800 - - - - NNW     342.62
2019-Jul-09 11:09:12 1008.500 - - - - NNW     342.62
2019-Jul-09 12:09:14 1008.300 - - - - NNW     342.62
2019-Jul-09 13:09:37 1008.000 - - - - NNW     342.62
2019-Jul-09 14:09:19 1007.900 - - - - NNW     342.62
2019-Jul-09 15:09:13 1007.400 - - - - NNW     342.62
2019-Jul-09 16:09:30 1007.200 - - - - NNW     342.62
2019-Jul-09 17:09:06 1006.800 - - - - NNW     342.62
2019-Jul-09 18:09:03 1006.900 - - - - NNW     342.62
2019-Jul-09 19:09:47 1006.800 - - - - NNW     342.62
2019-Jul-09 20:09:08 1007.400 - - - - NNW     342.62
2019-Jul-09 21:09:11 1007.900 - - - - NNW     342.62
2019-Jul-09 22:09:19 1008.900 - - - - NNW     342.62
2019-Jul-09 23:09:07 1009.800 - - - - NNW     342.62

Temperatura Máxima:    Temperatura Mínima:
Presión Máxima:1009.800 Hpa    Presión Mínima:1006.800 Hpa


Volver